HAWK-7B

导读

HAWK-7B是由美国发射的一颗卫星,于北京时间2023年4月15日8时成功发射入轨。作为HAWK系列卫星的成员,它延续了该系列卫星的技术路线,承担着空间技术验证、对地观测等相关航天任务,进一步充实了美国低轨卫星星座的部署规模,为后续相关航天应用提供数据与技术支撑,助力美国在商业航天和航天技术探索领域的持续发展。

Basic Information
目录编号:
56193
目录名称:
HAWK-7B
国际标识:
2023-054R
轨道中心:
EARTH
卫星名称:
HAWK-7B
卫星全名:
--
卫星状态:
在轨 (已飞行1245 天)
发射日期:
2023-04-15 UTC
国别 :
美国 (US)
星等 :
--
This satellite is enrolled in the Space Conjunction Data Service (SCDS) and the current flight risk assessment level is: No High Risk
Orbit Information
数据来源 国际轨道数据
星历时间: 2026-09-11T10:36:21+0800
17小时前
查看轨道信息
半长轴: 6859.509km
偏心率: 0.00038
轨道倾角: 97.259°
近地点辐角 97.041°
升交点赤经 137.538°
平近点角 263.126°
近地点: 478.765km
远地点: 483.979km
周期: 94.232分钟
每日圈数: 15.281405
Detailed Information
使用方式:
暂无
2D Orbit Map
3D Orbit Map
Orbit Altitude Analysis Chart
Orbit Inclination Analysis Chart
Orbit Comprehensive Analysis Chart
View Comprehensive Chart
Conjunction Data List
Event ID Objects TCA Miss Dist (km) Collision Risk Probability Collision Risk Index (CRI) Action
CDM_260914-050805-619305-986421
HAWK-7B (56193)
2026-09-14T
05:08:28+0000
0.388 km
远距离
3.32862E-4 高风险 0.85
CDM_260914-012405-619306-732921
HAWK-7B (56193)
2026-09-14T
01:24:55+0000
0.630 km
远距离
1.123406E-4 高风险 0.76
CDM_260913-005205-619306-654121
HAWK-7B (56193)
2026-09-13T
00:52:48+0000
0.708 km
远距离
8.055921E-5 中风险 0.73
CDM_260912-114605-619306-650827
HAWK-7B (56193)
2026-09-12T
11:46:58+0000
0.826 km
远距离
4.708769E-5 中风险 0.68
CDM_260912-073005-619306-742321
HAWK-7B (56193)
2026-09-12T
07:30:21+0000
0.958 km
远距离
2.895909E-5 中风险 0.64
CDM_260912-162905-619306-660121
HAWK-7B (56193)
2026-09-12T
16:29:05+0000
1.113 km
极远距离
1.349742E-5 中风险 0.58
CDM_260912-055605-619306-742321
HAWK-7B (56193)
2026-09-12T
05:56:06+0000
1.298 km
极远距离
1.010104E-5 中风险 0.55
CDM_260914-060105-533505-619321
HAWK-7B (56193)
2026-09-14T
06:01:50+0000
1.397 km
极远距离
8.335391E-6 低风险 0.53
CDM_260913-221305-619306-718821
HAWK-7B (56193)
2026-09-13T
22:13:04+0000
1.962 km
极远距离
2.943847E-6 低风险 0.44
CDM_260913-125605-619305-844623
HAWK-7B (56193)
2026-09-13T
12:56:10+0000
1.835 km
极远距离
2.914043E-6 低风险 0.44
Miss Distance Evolution Trend with All Objects
Collision Probability Evolution Trend with All Objects